TimeMDT,TemperatureF,Dew PointF,Humidity,Sea Level PressureIn,VisibilityMPH,Wind Direction,Wind SpeedMPH,Gust SpeedMPH,PrecipitationIn,Events,Conditions,WindDirDegrees,DateUTC
12:00 AM,33,29,80,30.09,,East,3.5,,,,,90,2013-08-03 06:00:00
12:00 AM,33.1,29.1,85,30.09,-9999.0,East,4.6,-,N/A,,Unknown,100,2013-08-03 06:00:00
1:00 AM,33.1,29.7,87,30.09,-9999.0,ESE,3.5,-,N/A,,Unknown,120,2013-08-03 07:00:00
2:00 AM,32.7,29.7,88,30.10,-9999.0,SSE,4.6,-,N/A,,Unknown,150,2013-08-03 08:00:00
3:00 AM,32.5,28.9,87,30.09,-9999.0,SE,4.6,-,N/A,,Unknown,140,2013-08-03 09:00:00
4:00 AM,32.7,28.9,86,30.09,-9999.0,SE,3.5,-,N/A,,Unknown,140,2013-08-03 10:00:00
5:00 AM,33.3,29.8,87,30.09,-9999.0,SSW,3.5,-,N/A,,Unknown,200,2013-08-03 11:00:00
6:00 AM,32,31,92,30.09,,WSW,5.8,,,,,240,2013-08-03 12:00:00
6:00 AM,32.4,30.6,93,30.09,-9999.0,SW,5.8,-,N/A,,Unknown,230,2013-08-03 12:00:00
7:00 AM,32.9,29.8,88,30.08,-9999.0,South,2.3,-,N/A,,Unknown,170,2013-08-03 13:00:00
8:00 AM,34.0,30.4,87,30.08,-9999.0,SSE,5.8,-,N/A,,Unknown,160,2013-08-03 14:00:00
9:00 AM,34.3,30.7,87,30.06,-9999.0,SSW,11.5,-,N/A,,Unknown,200,2013-08-03 15:00:00
10:00 AM,34.0,31.3,90,30.06,-9999.0,SSW,10.4,-,N/A,,Unknown,200,2013-08-03 16:00:00
11:00 AM,34.0,31.5,90,30.06,-9999.0,South,11.5,-,N/A,,Unknown,180,2013-08-03 17:00:00
12:00 PM,34,31,86,30.06,,South,13.8,,,,,190,2013-08-03 18:00:00
12:00 PM,33.8,31.6,92,30.06,-9999.0,South,13.8,-,N/A,,Unknown,190,2013-08-03 18:00:00
1:00 PM,34.2,31.5,90,30.05,-9999.0,South,13.8,-,N/A,,Unknown,180,2013-08-03 19:00:00
2:00 PM,34.3,31.6,90,30.05,-9999.0,South,16.1,-,N/A,,Unknown,180,2013-08-03 20:00:00
3:00 PM,34.5,31.1,87,30.04,-9999.0,South,15.0,-,N/A,,Unknown,170,2013-08-03 21:00:00
4:00 PM,35.2,32.2,89,30.04,-9999.0,South,10.4,-,N/A,,Unknown,180,2013-08-03 22:00:00
5:00 PM,35.1,32.2,89,30.04,-9999.0,South,16.1,-,N/A,,Unknown,180,2013-08-03 23:00:00
6:00 PM,35,32,84,30.03,,South,18.4,,,,,180,2013-08-04 00:00:00
6:00 PM,35.1,32.2,89,30.03,-9999.0,South,19.6,-,N/A,,Unknown,180,2013-08-04 00:00:00
7:00 PM,35.1,32.0,89,30.02,-9999.0,South,20.7,-,N/A,,Unknown,180,2013-08-04 01:00:00
8:00 PM,34.0,32.4,94,30.01,-9999.0,South,19.6,-,N/A,,Unknown,180,2013-08-04 02:00:00
9:00 PM,33.6,32.9,97,30.00,-9999.0,South,21.9,-,N/A,,Unknown,180,2013-08-04 03:00:00
10:00 PM,33.1,32.7,99,29.99,-9999.0,South,19.6,25.3,N/A,,Unknown,180,2013-08-04 04:00:00
11:00 PM,32.9,32.9,100,29.99,-9999.0,South,19.6,-,N/A,,Unknown,170,2013-08-04 05:00:00